Flight Track Log - Related Links

Times and Time Zones

All times are in EDT time to prevent confusion due to time zone crossing. See the SWA554 flight status page for this flight to view local times or setup timezone preferences in your user account.

Time Position Orientation Groundspeed Altitude Reporting Facility
EDT Latitude Longitude Course Direction KTS MPH feet Rate Location/Type
Wed 05:30:55 PM 39.1228 -76.7153 150° Southeast 188 216 4,700  Level Washington Center
Wed 05:31:55 PM 39.1236 -76.6108 89° East 138 159 7,400 3,150 Climbing Washington Center
Wed 05:32:55 PM 39.1331 -76.4986 84° East 231 266 11,000 3,400 Climbing Washington Center
Wed 05:33:55 PM 39.1400 -76.3756 86° East 283 326 14,200 3,176 Climbing Washington Center
Wed 05:34:54 PM 39.0761 -76.2814 131° Southeast 314 361 17,300 3,200 Climbing Washington Center
Wed 05:35:00 PM 39.1667 -76.6357 90° East  Level FlightAware Approximate
Wed 05:35:55 PM 39.0225 -76.1714 122° Southeast 325 374 20,600  Level Washington Center
Wed 05:36:54 PM 39.0772 -76.0569 58° Northeast 305 351 22,300 1,210 Climbing Washington Center
Wed 05:37:54 PM 39.1547 -75.9422 49° Northeast 352 405 23,000 350 Climbing Washington Center
Wed 05:38:54 PM 39.2342 -75.8275 48° Northeast 406 467 23,000 843 Level Washington Center
Wed 05:39:55 PM 39.3175 -75.7178 46° Northeast 406 467 24,700 2,000 Climbing Washington Center
Wed 05:40:54 PM 39.4031 -75.6103 44° Northeast 417 480 27,000 2,050 Climbing Washington Center
Wed 05:41:55 PM 39.4906 -75.4975 45° Northeast 428 493 28,800 1,686 Climbing Washington Center
Wed 05:42:55 PM 39.5781 -75.3814 46° Northeast 433 498 30,400 1,673 Climbing Washington Center
Wed 05:44:40 PM 39.7244 -75.1839 46° Northeast 464 534 33,400 1,782 Climbing New York Center
Wed 05:45:40 PM 39.8106 -75.0569 49° Northeast 469 540 35,300 1,785 Climbing New York Center
Wed 05:46:41 PM 39.8917 -74.9428 47° Northeast 452 520 37,000 836 Climbing New York Center
Wed 05:47:42 PM 39.9817 -74.8128 48° Northeast 445 512 37,000  Level New York Center
Wed 05:48:40 PM 40.0519 -74.7083 49° Northeast 423 487 37,000  Level New York Center
Wed 05:49:41 PM 40.1439 -74.5806 47° Northeast 429 494 37,000  Level New York Center
Wed 05:50:41 PM 40.2286 -74.4656 46° Northeast 429 494 37,000  Level New York Center
Wed 05:51:40 PM 40.3192 -74.3669 40° Northeast 429 494 37,000  Level New York Center
Wed 05:52:40 PM 40.4139 -74.2683 38° Northeast 429 494 37,000 -682 Level New York Center
Wed 05:54:36 PM 40.5817 -74.0850 40° Northeast 438 504 35,000 -1,364 Descending Boston Center
Wed 05:55:36 PM 40.6831 -73.9836 37° Northeast 438 504 33,000 -1,000 Descending Boston Center
Wed 05:56:36 PM 40.7822 -73.8792 39° Northeast 449 517 33,000  Level Boston Center
Wed 05:57:34 PM 40.8958 -73.8103 25° Northeast 449 517 33,000  Level Boston Center
Wed 05:58:34 PM 41.0092 -73.7439 24° Northeast 444 511 33,000  Level Boston Center
Wed 05:59:36 PM 41.1350 -73.6692 24° Northeast 444 511 33,000  Level Boston Center
Wed 06:00:36 PM 41.2519 -73.6522 North 426 490 33,000  Level Boston Center
Wed 06:01:37 PM 41.3683 -73.6792 350° North 420 483 33,000 -595 Level Boston Center
Wed 06:02:47 PM 41.4825 -73.7036 351° North 420 483 31,700 -1,385 Descending Boston Center
Wed 06:03:47 PM 41.6281 -73.7286 353° North 425 489 30,000 -1,388 Descending Boston Center
Wed 06:04:48 PM 41.7494 -73.6978 11° North 430 495 28,900 -1,041 Descending Boston Center
Wed 06:05:48 PM 41.8747 -73.6642 11° North 437 503 27,900 -1,000 Descending Boston Center
Wed 06:06:48 PM 42.0044 -73.6247 13° North 455 524 26,900 -966 Descending Boston Center
Wed 06:07:46 PM 42.1242 -73.5458 26° Northeast 470 541 26,000 -958 Descending Boston Center
Wed 06:08:47 PM 42.2333 -73.4608 30° Northeast 457 526 25,000 -496 Descending Boston Center
Wed 06:09:47 PM 42.3361 -73.3781 31° Northeast 443 510 25,000 -246 Level Boston Center
Wed 06:10:49 PM 42.4408 -73.3011 28° Northeast 430 495 24,500 -756 Descending Boston Center
Wed 06:11:46 PM 42.5414 -73.2264 29° Northeast 424 488 23,500 -1,525 Descending Boston Center
Wed 06:12:47 PM 42.6047 -73.0972 56° Northeast 398 458 21,500 -2,182 Descending Boston Center
Wed 06:13:47 PM 42.6389 -72.9481 73° East 421 484 19,100 -1,736 Descending Boston Center
Wed 06:14:48 PM 42.6728 -72.8186 70° East 411 473 18,000 -1,714 Descending Boston Center
Wed 06:15:46 PM 42.7086 -72.6689 72° East 406 467 15,700 -1,900 Descending Boston Center
Wed 06:16:48 PM 42.7400 -72.5250 73° East 400 460 14,200 -1,550 Descending Boston Center
Wed 06:17:46 PM 42.7733 -72.3836 72° East 400 460 12,600 -1,613 Descending Boston Center
Wed 06:18:47 PM 42.7983 -72.2278 78° East 395 455 11,000 -1,289 Descending Boston Center
Wed 06:19:47 PM 42.8064 -72.1061 85° East 375 432 10,000 -1,300 Descending Boston Center
Wed 06:20:47 PM 42.8183 -71.9617 84° East 357 411 8,400 -1,388 Descending Boston Center
Wed 06:21:48 PM 42.8283 -71.8511 83° East 342 394 7,200 -1,008 Descending Boston Center
Wed 06:22:46 PM 42.8150 -71.7467 100° East 311 358 6,400 -1,059 Descending Boston Center
Wed 06:23:47 PM 42.7978 -71.6450 103° East 265 305 5,100 -1,426 Descending Boston Center
Wed 06:24:48 PM 42.8264 -71.5739 61° Northeast 197 227 3,500 -1,300 Descending Boston Center
Wed 06:25:47 PM 42.8594 -71.5367 40° Northeast 175 201 2,500 -1,068 Descending Boston Center
Wed 06:26:46 PM 42.8925 -71.4936 44° Northeast 150 173 1,400 -958 Descending Boston Center
Wed 06:27:46 PM 42.9172 -71.4619 43° Northeast 140 161 600 -496 Descending Boston Center
Wed 06:28:47 PM 42.9439 -71.4275 43° Northeast 134 154 400 11,603 Descending Boston Center
Wed 06:29:47 PM 42.9708 -71.3903 45° Northeast 134 154 24,000 11,702 Climbing Boston Center
Wed 06:30:48 PM 42.9956 -71.3558 46° Northeast 134 154 24,000  Level Boston Center
Wed 06:31:48 PM 43.0222 -71.3183 46° Northeast 134 154 24,000  Level Boston Center
Wed 06:32:46 PM 43.0264 -71.3125 46° Northeast 134 154 24,000  Level Boston Center
Wed 06:34:00 PM 42.9328 -71.4358 224° Southwest  Level Estimated
Wed 06:41:00 PM 42.9328 -71.4358 180° South  Level Estimated
Wed 06:42:00 PM 42.9328 -71.4358 180° South  Level Estimated
Wed 06:43:00 PM 42.9328 -71.4358 180° South  Level Estimated
Wed 06:44:00 PM 42.9328 -71.4358 180° South  Level Estimated
Wed 06:45:00 PM 42.9328 -71.4358 180° South  Level Estimated
Wed 06:46:00 PM 42.9328 -71.4358 180° South  Level Estimated

Login

Don't have an account? Register now (free) for customized features, flight alerts, and more!